Other Public Products
Issued by NWS Grand Forks, ND

Home | Current Version | Previous Version | Text Only | Print | Product List | Glossary On
Versions: 1 2 3 4 5 6 7 8 9 10 11 12 13 14 15 16 17 18 19 20 21 22 23 24 25 26 27 28 29 30 31 32 33 34 35 36 37 38 39 40 41 42 43 44 45 46 47 48 49 50
000
FPUS83 KFGF 231310
OPUFGF
PRAIRIE TO PINES WEATHER ROUNDUP
NATIONAL WEATHER SERVICE EASTERN NORTH DAKOTA/GRAND FORKS ND
800 AM CDT TUE SEP 23 2014

 **SATELLITE DATA USED TO AUGMENT SKY COVER AT AUTOMATED STATIONS**
 *****  WEATHER ACROSS EASTERN NORTH DAKOTA  *****

CITY           SKY/WX    TMP DP  RH WIND       PRES   REMARKS
GRAND FORKS    CLEAR     53  49  86 S10       30.02S
GRAND FORKS AF CLEAR     53  51  95 S8        30.02S
GRAND CITY NWS   N/A     54 N/A N/A S14         N/A
BUXTON         NOT AVBL
DEVILS LAKE    CLEAR     57  48  72 S8        29.95S
FARGO          CLEAR     57  48  72 SE13      30.05R
WAHPETON ARPT  SUNNY     52  46  82 SE9       30.08S
$$

 *****  WEATHER ACROSS CENTRAL AND WESTERN NORTH DAKOTA  *****

CITY           SKY/WX    TMP DP  RH WIND       PRES   REMARKS
JAMESTOWN      CLEAR     54  51  90 S6        29.98S
BISMARCK       CLEAR     60  55  83 S12       29.92S
MINOT          CLEAR     51  48  89 SE3       29.88S
MINOT AFB      CLEAR     49  49  99 SE6       29.88S
GARRISON         N/A     54  52  93 SE5       29.89S
WILLISTON      CLEAR     47  45  93 N3        29.85S
DICKINSON      CLEAR     51  48  89 S8        29.87R
HETTINGER      PTCLDY    53  51  93 SE5       29.91S
$$

 *****  OTHER OBSERVATIONS NORTHEAST NORTH DAKOTA  *****

CITY           SKY/WX    TMP DP  RH WIND       PRES   REMARKS
WALHALLA       FAIR      52  52 100 S12       29.98F
LANGDON        FAIR      55  50  82 S12       29.97F
CAVALIER       FAIR      52  48  87 S9        29.99F
GRAFTON        FAIR      52  50  93 S10       30.01S
CANDO          FAIR      50  50 100 SE7       29.96S
FORT TOTTEN      N/A     55  50  84 S9        29.95S
ROLLA          FAIR      50  50 100 S12       29.95S
RUGBY          FAIR      54  50  87 SE7       29.93R
 ***** THE ABOVE OBSERVATIONS ARE NON NWS ARE NOT QUALITY
        CONTROLLED AND MAY MIS-REPORT RAIN FOR SNOW...
$$

 *****  OTHER OBSERVATIONS SOUTHEAST NORTH DAKOTA *****

CITY           SKY/WX    TMP DP  RH WIND       PRES   REMARKS
COOPERSTOWN    NOT AVBL
VALLEY CITY    FAIR      54  54 100 SE9       30.01S
OAKES            N/A     55  55 100 SE8       30.01F
GWINNER        MOSUNNY   55  54  94 SE5       30.04S
SHEYENNE NWR     N/A     52  49  90 SE6       29.95
BUFFALO        NOT AVBL
WYNDMERE         N/A     54  50  87 SE3         N/A
 ***** THE ABOVE OBSERVATIONS ARE NON NWS ARE NOT QUALITY
       CONTROLLED AND MAY MIS-REPORT RAIN FOR SNOW...
$$

  *****  WEATHER ACROSS NORTHERN MINNESOTA  *****

CITY           SKY/WX    TMP DP  RH WIND       PRES   REMARKS
FLAG ISLAND    CLEAR     57  54  88 SE9       30.06S
WARROAD        CLEAR     52  48  87 S6        30.07S
ROSEAU         CLEAR     52  46  82 S5        30.06S
HALLOCK        CLEAR     54  48  82 SE10      30.01F
THF RVR FALLS  CLEAR     52  46  82 SE7       30.06S
HALSTAD          N/A     53  48  84 SE9         N/A
FOSSTON        CLEAR     50  46  87 CALM      30.09S
BAUDETTE       CLEAR     49  46  90 CALM      30.09F
WASKISH        CLEAR     52  50  93 CALM      30.11S
CROOKSTON      CLEAR     54  50  87 SE7       30.05S
$$
  *****  WEATHER ACROSS CENTRAL AND WEST MINNESOTA  *****

CITY           SKY/WX    TMP DP  RH WIND       PRES   REMARKS
BEMIDJI        CLEAR     45  44  99 SE3       30.12S
PARK RAPIDS    CLEAR     48  46  93 SE7       30.13R
WADENA         CLEAR     48  46  93 CALM      30.12S
DETROIT LAKES  CLEAR     54  50  87 SE7       30.11S
MOORHEAD       CLEAR     57  52  82 S12       30.07R
FERGUS FALLS   CLEAR     55  46  71 SE9       30.10S
ELBOW LAKE     FAIR      53  49  86 SE10      30.11S
MORRIS MN      PTCLDY    52  48  87 SE10      30.10S
STAPLES        CLEAR     46  46 100 SE3       30.14S
WHEATON        PTCLDY    48  46  93 SE10      30.09S
$$
  *****  WEATHER ELSEWHERE ACROSS MINNESOTA  *****

CITY           SKY/WX    TMP DP  RH WIND       PRES   REMARKS
DULUTH         CLEAR     55  49  80 SW3       30.19S
INTRNTL FALLS  CLEAR     47  45  93 SE3       30.14R
ELY            CLEAR     41  39  93 CALM      30.19R
CLOQUET        CLEAR     48  46  93 CALM      30.19S
BRAINERD       CLEAR     46  46 100 CALM      30.17S
HIBBING        PTCLDY    42  40  92 CALM      30.19S FOG
ALEXANDRIA     CLEAR     51  47  86 SE6       30.15R
SAINT CLOUD    CLEAR     52  48  86 SE6       30.18S
MINNEAPOLIS    PTCLDY    53  49  86 SE5       30.22R
$$

  *****  WEATHER ACROSS SOUTH DAKOTA  *****

CITY           SKY/WX    TMP DP  RH WIND       PRES   REMARKS
SIOUX FALLS    LGT RAIN  58  53  84 S10       30.13R
BROOKINGS      NOT AVBL
WATERTOWN      CLOUDY    56  50  80 SE9       30.08R
HURON          CLOUDY    60  54  80 S12G20    30.03R
SISSETON         N/A     50  49  96 SE6       30.06R
ABERDEEN       LGT RAIN  60  56  86 S12       30.02R
MITCHELL       LGT RAIN  58  57  97 S16       30.06S
PIERRE         PTCLDY    58  52  80 SE14      29.92F
MOBRIDGE       CLOUDY    63  56  78 S14       29.93R
RAPID CITY     MOCLDY    58  53  84 CALM      29.91R
$$

  *****  SOME WEATHER IN NEARBY STATES *****

CITY           SKY/WX    TMP DP  RH WIND       PRES   REMARKS
GLASGOW MT     CLEAR     50  44  80 CALM      29.85R
GREAT FALLS MT CLEAR     60  46  59 SW14      29.97R
CHEYENNE WY    CLEAR     53  44  71 SW12      30.17R
SCOTTSBLUFF NE CLEAR     50  47  89 N5        30.02R
OMAHA NE       CLOUDY    61  52  72 SE10      30.18S
DES MOINES IA  MOCLDY    55  49  80 S6        30.25R
DAVENPORT IA   SUNNY     50  45  83 S5        30.31R
CHICAGO IL     SUNNY     54  43  66 SW5       30.33R
EAU CLAIRE WI  SUNNY     47  45  93 CALM      30.25R
LA CROSSE WI   FOG       50  49  96 SE6       30.27S VSB 1/4
$$

  *****  SOME NATIONAL WEATHER *****

CITY           SKY/WX    TMP DP  RH WIND       PRES   REMARKS
LA GUARDIA NY  MOSUNNY   57  40  52 CALM      30.31R
RALEIGH NC     CLOUDY    58  45  62 NE7       30.32R
ATLANTA GA     MOSUNNY   65  52  62 NE14      30.19R
NEW ORLEANS LA MOSUNNY   72  57  59 NE13G23   30.08R
OKLAHOMA CITY  PTCLDY    57  52  83 S6        30.20S
ALBUQUERQUE NM PTCLDY    60  55  83 CALM      30.26S
SALT LAKE CITY PTCLDY    59  52  77 SE6       30.13R
LOS ANGELES CA PTCLDY    65  62  89 CALM      29.95S
BOISE ID       PTCLDY    63  51  65 SE14      30.01R
SEATTLE WA     MOCLDY    59  56  89 SE6       29.86F
$$

*** WEATHER ACROSS MANITOBA...SASKATCHEWAN AND ONTARIO ***
                ***ONTARIO***

CITY           SKY/WX    TMP DP  RH WIND       PRES   REMARKS
GERALDTON      FOG       48  48 100 E6        30.19R VSB 3/8
THUNDER BAY    SUNNY     52  50  93 NW5       30.17R
SIOUX LOOKOUT  PTCLDY    52  50  93 S5        30.12R
TORONTO        PTSUNNY   57  48  72 SW8       30.27R
BIG TROUT LK   CLOUDY    46  45  93 S14       30.08F FOG
PICKLE LAKE    PTSUNNY   50  48  93 S9        30.10S FOG
DRYDEN         CLEAR     54  48  82 S8        30.12R
KENORA         CLEAR     52  50  93 S8        30.09S
$$
                *** MANITOBA***

CITY           SKY/WX    TMP DP  RH WIND       PRES   REMARKS
BRANDON        CLEAR     46  46 100 E6        29.91S
DAUPHIN        CLEAR     63  50  63 SW12G17   29.86S
ISLAND LAKE    PTCLDY    54  50  87 S8        29.91F
PILOT MOUND      N/A     52  48  87 SE12        N/A
THE PAS        MOCLDY    50  48  93 SE10      29.72F
THOMPSON       MOCLDY    46  46 100 SE3       29.75
WINNIPEG       CLEAR     54  48  82 S16       29.98S
LYNN LAKE      CLEAR     48  48 100 S5        29.64F
CHURCHILL      CLOUDY    41  37  87 S25G35    29.74F
GILLAM         CLOUDY    48  48 100 S10       29.82F
$$
                ***SASKATCHEWAN***

CITY           SKY/WX    TMP DP  RH WIND       PRES   REMARKS
ESTEVAN        CLEAR     48  46  93 E3        29.86S
KINDERSLEY     PTCLDY    46  43  87 S6        29.79R
LLOYDMINSTER   MOCLDY    54  45  71 W10       29.76R
PRINCE ALBERT  NOT AVBL
REGINA         PTCLDY    50  48  93 SE13      29.83S


USA.gov is the U.S. government's official web portal to all federal, state and local government web resources and services.